Regional Weather Roundup
Issued by NWS

Home | Current Version | Previous Version | Text Only | Print | Product List | Glossary Off
Versions: 1 2 3 4 5 6 7 8 9 10 11 12 13 14 15 16 17 18 19 20 21 22 23 24 25 26 27 28 29 30 31 32 33 34 35 36 37 38 39 40 41 42 43 44 45 46 47 48 49 50

000
ASUS43 KLMK 012302
RWRKY
KENTUCKY REGIONAL WEATHER ROUNDUP
NATIONAL WEATHER SERVICE LOUISVILLE KY
600 PM EST SUN MAR 01 2015

NOTE "FAIR" INDICATES FEW OR NO CLOUDS BELOW 12,000 FEET
WITH NO SIGNIFICANT WEATHER AND/OR OBSTRUCTIONS TO VISIBILITY.

KYZ001>023-026-027-061>063-070>075-020000-
WESTERN AND SOUTH CENTRAL KENTUCKY

CITY           SKY/WX    TMP DP  RH WIND       PRES   REMARKS
PADUCAH        CLOUDY    38  31  76 N5        30.32F WCI  34
HENDERSON      CLOUDY    36  30  80 W5        30.33S WCI  32
OWENSBORO      CLOUDY    36  32  85 NW5       30.33F WCI  32
HOPKINSVILLE   CLOUDY    43  43 100 NW9       30.30S FOG
BOWLING GREEN  CLOUDY    48  46  93 MISG      30.30R FOG
GLASGOW        NOT AVBL
$$

KYZ024-025-028>034-038-045-046-053-020000-
NORTH CENTRAL KENTUCKY

CITY           SKY/WX    TMP DP  RH WIND       PRES   REMARKS
LOUISVILLE/SDF CLOUDY    39  35  86 NW3       30.29F FOG
LOUISVILLE/LOU CLOUDY    38  35  89 NW7       30.30S FOG     WCI  33
FORT KNOX      CLOUDY    37  37  97 W9        30.27F FOG     WCI  31
$$

KYZ035>037-039>044-047>052-055>060-089>105-020000-
NORTHEAST KENTUCKY

CITY           SKY/WX    TMP DP  RH WIND       PRES   REMARKS
LEXINGTON      LGT RAIN  40  40 100 W7        30.27R VSB 1/4
COVINGTON      NOT AVBL
FRANKFORT      FOG       38  37  97 NW9       30.28R VSB 3/4 WCI  31
$$

KYZ054-064>069-076>088-106>120-020000-
SOUTHEAST KENTUCKY

CITY           SKY/WX    TMP DP  RH WIND       PRES   REMARKS
JACKSON        CLOUDY    42  40  92 SW5       30.25F
LONDON         CLOUDY    48  43  82 SW6       30.28S
SOMERSET       NOT AVBL
MIDDLESBORO    FOG       39  39 100 CALM      30.33S VSB<1/4
MONTICELLO     CLOUDY    50  49  96 SW6       30.31F
$$




USA.gov is the U.S. government's official web portal to all federal, state and local government web resources and services.